When you browse on this site, cookies collect data to enhance your experience and personalize the content and advertising you see.
Visit our Privacy Policy to learn more. By continuing to use the site, you agree to this use of cookies and data.
  • Em Portugal
  • Lista de países
  • Para 7 dias
  • Temperatura da água
  • Mapas de satélite
  • Mapa do tempo
  • Widgets de tempo
  • user-avatar
    Iniciar Sessão

    Previsão horária em Grzepa

    Hoje, 18 Dezembro, Terça-feira

    Tempo Temperatura Precipitação Vento Pressão Humidade
    00:00 -3°C° 0 mm 1 m/s 765 mmHg 89%
    01:00 -3°C° 0 mm 1 m/s 765 mmHg 89%
    02:00 -3°C° 0 mm 1 m/s 765 mmHg 89%
    03:00 -3°C° 0 mm 1 m/s 765 mmHg 89%
    04:00 -3°C° 0 mm 1 m/s 766 mmHg 89%
    05:00 -3°C° 0 mm 1 m/s 766 mmHg 88%
    06:00 -3°C° 0 mm 1 m/s 766 mmHg 88%
    07:00 -3°C° 0 mm 1 m/s 766 mmHg 88%
    08:00 -3°C° 0 mm 1 m/s 766 mmHg 86%
    09:00 -3°C° 0 mm 1 m/s 766 mmHg 84%
    10:00 -4°C° 0 mm 2 m/s 766 mmHg 83%
    11:00 -4°C° 0 mm 2 m/s 766 mmHg 81%
    12:00 -3°C° 0 mm 2 m/s 766 mmHg 80%
    13:00 -3°C° 0 mm 2 m/s 767 mmHg 82%
    14:00 -3°C° 0 mm 2 m/s 766 mmHg 84%
    15:00 -3°C° 0 mm 2 m/s 766 mmHg 87%
    16:00 -4°C° 0 mm 2 m/s 766 mmHg 89%
    17:00 -3°C° 0 mm 2 m/s 766 mmHg 90%
    18:00 -4°C° 0 mm 3 m/s 767 mmHg 90%
    19:00 -4°C° 0 mm 3 m/s 767 mmHg 91%
    20:00 -2°C° 0 mm 3 m/s 767 mmHg 92%
    21:00 -2°C° 0 mm 3 m/s 766 mmHg 93%
    22:00 -2°C° 0 mm 3 m/s 766 mmHg 94%
    23:00 -2°C° 0 mm 3 m/s 766 mmHg 94%

    Amanhã, 19 Dezembro, Quarta-feira

    Tempo Temperatura Precipitação Vento Pressão Humidade
    00:00 -2°C° 0 mm 3 m/s 766 mmHg 94%
    01:00 -1°C° 0 mm 3 m/s 766 mmHg 94%
    02:00 -1°C° 0 mm 3 m/s 766 mmHg 94%
    03:00 -2°C° 0 mm 4 m/s 766 mmHg 94%
    04:00 -2°C° 0 mm 4 m/s 766 mmHg 94%
    05:00 -2°C° 0 mm 4 m/s 766 mmHg 94%
    06:00 -2°C° 0 mm 4 m/s 765 mmHg 94%
    07:00 -2°C° 0 mm 4 m/s 765 mmHg 94%
    08:00 -2°C° 0 mm 4 m/s 765 mmHg 92%
    09:00 -2°C° 0 mm 5 m/s 765 mmHg 90%
    10:00 -2°C° 0 mm 5 m/s 765 mmHg 88%
    11:00 -2°C° 0 mm 5 m/s 765 mmHg 85%
    12:00 -2°C° 0 mm 5 m/s 764 mmHg 83%
    13:00 -2°C° 0 mm 5 m/s 764 mmHg 81%
    14:00 -2°C° 0 mm 5 m/s 763 mmHg 82%
    15:00 -4°C° 0 mm 6 m/s 763 mmHg 84%
    16:00 -5°C° 0 mm 6 m/s 763 mmHg 86%
    17:00 -5°C° 0 mm 6 m/s 763 mmHg 85%
    18:00 -5°C° 0 mm 6 m/s 762 mmHg 84%
    19:00 -5°C° 0 mm 6 m/s 762 mmHg 83%
    20:00 -5°C° 0 mm 6 m/s 762 mmHg 83%
    21:00 -5°C° 0 mm 6 m/s 762 mmHg 82%
    22:00 -6°C° 0 mm 6 m/s 762 mmHg 82%
    23:00 -6°C° 0 mm 6 m/s 762 mmHg 82%

    Depois de amanhã, 20 Dezembro, Quinta-feira

    Tempo Temperatura Precipitação Vento Pressão Humidade
    00:00 -6°C° 0 mm 6 m/s 761 mmHg 82%
    01:00 -6°C° 0 mm 6 m/s 761 mmHg 82%
    02:00 -6°C° 0 mm 5 m/s 761 mmHg 82%
    03:00 -6°C° 0 mm 5 m/s 761 mmHg 83%
    04:00 -6°C° 0 mm 5 m/s 761 mmHg 84%
    05:00 -6°C° 0 mm 5 m/s 761 mmHg 84%
    06:00 -6°C° 0 mm 5 m/s 760 mmHg 85%
    07:00 -6°C° 0 mm 5 m/s 760 mmHg 86%
    08:00 -6°C° 0 mm 5 m/s 760 mmHg 85%
    09:00 -5°C° 0 mm 5 m/s 760 mmHg 85%
    10:00 -5°C° 0 mm 5 m/s 760 mmHg 84%
    11:00 -5°C° 0 mm 5 m/s 760 mmHg 83%
    12:00 -3°C° 0 mm 4 m/s 760 mmHg 83%
    13:00 -3°C° 0 mm 4 m/s 760 mmHg 82%
    14:00 -3°C° 0.1 mm 4 m/s 759 mmHg 83%
    15:00 -3°C° 0.1 mm 4 m/s 759 mmHg 85%
    16:00 -3°C° 0.1 mm 4 m/s 759 mmHg 86%
    17:00 -3°C° 0.2 mm 4 m/s 759 mmHg 87%
    18:00 -3°C° 0.2 mm 4 m/s 759 mmHg 88%
    19:00 -3°C° 0.2 mm 4 m/s 759 mmHg 89%
    20:00 -3°C° 0.3 mm 4 m/s 759 mmHg 90%
    21:00 -3°C° 0.3 mm 4 m/s 758 mmHg 91%
    22:00 -3°C° 0.3 mm 4 m/s 758 mmHg 92%
    23:00 -3°C° 0.4 mm 4 m/s 758 mmHg 93%

    21 Dezembro, Sexta-feira

    Tempo Temperatura Precipitação Vento Pressão Humidade
    00:00 -3°C° 0.4 mm 4 m/s 758 mmHg 93%
    01:00 -3°C° 0.4 mm 4 m/s 758 mmHg 94%
    02:00 -2°C° 0.3 mm 4 m/s 757 mmHg 95%
    03:00 -1°C° 0.3 mm 3 m/s 757 mmHg 95%
    04:00 -1°C° 0.3 mm 3 m/s 757 mmHg 96%
    05:00 0°C° 0.1 mm 3 m/s 757 mmHg 96%
    06:00 0°C° 0.1 mm 3 m/s 756 mmHg 96%
    07:00 0°C° 0.1 mm 3 m/s 756 mmHg 97%
    08:00 0°C° 0 mm 3 m/s 756 mmHg 97%
    09:00 0°C° 0 mm 3 m/s 756 mmHg 97%
    10:00 -1°C° 0 mm 4 m/s 756 mmHg 98%
    11:00 -1°C° 0 mm 4 m/s 756 mmHg 98%
    12:00 +1°C° 0 mm 3 m/s 755 mmHg 97%
    13:00 +1°C° 0 mm 3 m/s 755 mmHg 97%
    14:00 0°C° 0 mm 4 m/s 755 mmHg 97%
    15:00 -1°C° 0 mm 4 m/s 754 mmHg 97%
    16:00 -1°C° 0 mm 4 m/s 754 mmHg 96%
    17:00 -1°C° 0 mm 4 m/s 753 mmHg 96%
    18:00 -1°C° 0 mm 4 m/s 753 mmHg 95%
    19:00 -1°C° 0 mm 4 m/s 752 mmHg 95%
    20:00 -1°C° 0.1 mm 5 m/s 751 mmHg 95%
    21:00 -1°C° 0.1 mm 5 m/s 750 mmHg 94%
    22:00 -1°C° 0.1 mm 5 m/s 749 mmHg 94%
    23:00 -1°C° 0.5 mm 5 m/s 749 mmHg 94%

    22 Dezembro, Sábado

    Tempo Temperatura Precipitação Vento Pressão Humidade
    00:00 -1°C° 0.5 mm 5 m/s 748 mmHg 94%
    01:00 0°C° 0.5 mm 5 m/s 747 mmHg 94%
    02:00 0°C° 0.6 mm 5 m/s 747 mmHg 95%
    03:00 0°C° 0.6 mm 5 m/s 746 mmHg 95%
    04:00 0°C° 0.6 mm 4 m/s 746 mmHg 96%
    05:00 +1°C° 0.3 mm 5 m/s 746 mmHg 95%
    06:00 +1°C° 0.3 mm 5 m/s 746 mmHg 94%
    07:00 +2°C° 0.3 mm 6 m/s 746 mmHg 94%
    08:00 +2°C° 0.1 mm 6 m/s 747 mmHg 94%
    09:00 +2°C° 0.1 mm 6 m/s 747 mmHg 94%
    10:00 +2°C° 0.1 mm 6 m/s 747 mmHg 94%
    11:00 +2°C° 0 mm 6 m/s 747 mmHg 94%
    12:00 +2°C° 0 mm 6 m/s 747 mmHg 94%
    13:00 +2°C° 0 mm 5 m/s 747 mmHg 94%
    14:00 +2°C° 0.4 mm 5 m/s 746 mmHg 95%
    15:00 +2°C° 0.4 mm 5 m/s 746 mmHg 96%
    16:00 +3°C° 0.4 mm 4 m/s 746 mmHg 96%
    17:00 +3°C° 0.6 mm 4 m/s 746 mmHg 96%
    18:00 +3°C° 0.6 mm 4 m/s 746 mmHg 96%
    19:00 +3°C° 0.6 mm 4 m/s 746 mmHg 96%
    20:00 +3°C° 0.1 mm 4 m/s 746 mmHg 95%
    21:00 +2°C° 0.1 mm 5 m/s 746 mmHg 94%
    22:00 +2°C° 0.1 mm 5 m/s 746 mmHg 93%
    23:00 +2°C° 0.1 mm 5 m/s 746 mmHg 92%

    23 Dezembro, Domingo

    Tempo Temperatura Precipitação Vento Pressão Humidade
    00:00 +2°C° 0.1 mm 5 m/s 746 mmHg 92%
    01:00 +2°C° 0.1 mm 5 m/s 747 mmHg 92%
    02:00 +2°C° 0.4 mm 6 m/s 747 mmHg 91%
    03:00 +2°C° 0.4 mm 6 m/s 747 mmHg 90%
    04:00 +2°C° 0.4 mm 6 m/s 747 mmHg 90%
    05:00 +2°C° 0.3 mm 6 m/s 748 mmHg 90%
    06:00 +2°C° 0.3 mm 6 m/s 749 mmHg 91%
    07:00 +2°C° 0.3 mm 6 m/s 749 mmHg 92%
    08:00 +2°C° 0.1 mm 6 m/s 750 mmHg 92%
    09:00 +2°C° 0.1 mm 5 m/s 751 mmHg 91%
    10:00 +2°C° 0.1 mm 5 m/s 752 mmHg 91%
    11:00 +2°C° 0.1 mm 5 m/s 752 mmHg 91%
    12:00 +3°C° 0.1 mm 4 m/s 752 mmHg 91%
    13:00 +3°C° 0.1 mm 4 m/s 753 mmHg 90%
    14:00 +2°C° 0 mm 3 m/s 753 mmHg 91%
    15:00 +2°C° 0 mm 3 m/s 753 mmHg 92%
    16:00 +3°C° 0 mm 2 m/s 753 mmHg 93%
    17:00 +2°C° 0 mm 2 m/s 754 mmHg 93%
    18:00 +3°C° 0 mm 1 m/s 754 mmHg 93%
    19:00 +3°C° 0 mm 1 m/s 754 mmHg 93%
    20:00 +3°C° 0.3 mm 1 m/s 754 mmHg 92%
    21:00 +2°C° 0.3 mm 2 m/s 755 mmHg 92%
    22:00 +2°C° 0.3 mm 2 m/s 755 mmHg 92%
    23:00 +2°C° 0.3 mm 2 m/s 755 mmHg 92%
    Mostrar mais